Weather History for McGuire AFB, NJ

Change the Weather History Date:

Thursday, December 19, 2013

  Actual Average Record
Temperature  
Mean Temperature 34 °F -  
Max Temperature 47 °F 43 °F 57 °F (2002)
Min Temperature 22 °F 25 °F 19 °F (2011)
Degree Days  
Heating Degree Days 30    
Moisture  
Dew Point 25 °F    
Average Humidity 65    
Maximum Humidity 86    
Minimum Humidity 43    
Precipitation  
Precipitation 0.00 in - - ()
Sea Level Pressure  
Sea Level Pressure 30.13 in    
Wind  
Wind Speed 7 mph (SSW)    
Max Wind Speed 13 mph    
Max Gust Speed -    
Visibility 10 miles    
Events      
Averages and records for this station are not official NWS values.
T = Trace of Precipitation, MM = Missing Value Source: NWS Daily Summary

Daily Weather History Graph

Daily Weather History Graph

Search for Another Location

Airport:

Trip Planner

Search our weather history database for the weather conditions in past years. The results will help you decide how hot, cold, wet, or windy it might be!

Date:

Astronomy

Dec. 19, 2013 Rise Set
Actual Time 7:15 AM EST 4:35 PM EST
Civil Twilight 6:45 AM EST 5:06 PM EST
Nautical Twilight 6:11 AM EST 5:40 PM EST
Astronomical Twilight 5:38 AM EST 6:13 PM EST
Moon 6:59 PM EST (12/19) 8:33 AM EST (12/19)
Length of Visible Light 10h 20m
Length of Day
9h 19m
Waning Gibbous, 95% of the Moon is Illuminated
Dec 19
Waning Gibbous
Dec 25
Last Quarter
Jan 1
New
Jan 7
First Quarter
Jan 15
Full

Hourly Weather History & Observations

Time (EST) Temp. Windchill Dew Point Humidity Pressure Visibility Wind Dir Wind Speed Gust Speed Precip Events Conditions
12:58 AM 24.3 °F 17.3 °F 18.3 °F 78% 30.20 in 10.0 mi South 5.8 mph - N/A   Clear
1:58 AM 23.2 °F 16.0 °F 17.8 °F 80% 30.20 in 10.0 mi SSW 5.8 mph - N/A   Clear
2:58 AM 22.3 °F 14.9 °F 17.8 °F 83% 30.22 in 10.0 mi SSW 5.8 mph - N/A   Clear
3:58 AM 22.5 °F 17.8 °F 18.1 °F 83% 30.19 in 10.0 mi South 3.5 mph - N/A   Clear
4:58 AM 22.3 °F 16.1 °F 18.5 °F 85% 30.19 in 10.0 mi SSW 4.6 mph - N/A   Partly Cloudy
5:58 AM 23.2 °F 14.1 °F 19.6 °F 86% 30.18 in 10.0 mi South 8.1 mph - N/A   Clear
6:58 AM 23.2 °F 17.2 °F 19.6 °F 86% 30.17 in 10.0 mi South 4.6 mph - N/A   Clear
7:58 AM 27.7 °F 18.2 °F 23.5 °F 84% 30.14 in 10.0 mi South 10.4 mph - N/A   Partly Cloudy
8:58 AM 32.7 °F 23.9 °F 26.1 °F 76% 30.14 in 10.0 mi SSW 11.5 mph - N/A   Partly Cloudy
9:58 AM 36.7 °F 30.5 °F 26.2 °F 66% 30.14 in 10.0 mi SSW 8.1 mph - N/A   Partly Cloudy
10:58 AM 41.4 °F 34.3 °F 24.8 °F 52% 30.12 in 10.0 mi SW 12.7 mph - N/A   Clear
11:58 AM 45.1 °F 39.1 °F 25.3 °F 46% 30.09 in 10.0 mi SW 12.7 mph - N/A   Clear
12:58 PM 46.4 °F 41.1 °F 25.0 °F 43% 30.08 in 10.0 mi SW 11.5 mph - N/A   Clear
1:58 PM 47.3 °F - 26.8 °F 45% 30.06 in 10.0 mi SW 8.1 mph - N/A   Clear
2:58 PM 46.9 °F - 26.6 °F 45% 30.06 in 10.0 mi SW 6.9 mph - N/A   Clear
3:58 PM 46.0 °F 41.4 °F 27.1 °F 48% 30.08 in 10.0 mi SW 9.2 mph - N/A   Clear
4:58 PM 42.1 °F 37.7 °F 26.4 °F 54% 30.09 in 10.0 mi SSW 6.9 mph - N/A   Clear
5:58 PM 43.2 °F 37.9 °F 28.4 °F 56% 30.11 in 10.0 mi SSW 9.2 mph - N/A   Partly Cloudy
6:58 PM 42.6 °F 37.8 °F 28.6 °F 58% 30.12 in 10.0 mi SSW 8.1 mph - N/A   Clear
7:58 PM 41.0 °F 37.1 °F 28.2 °F 60% 30.13 in 10.0 mi South 5.8 mph - N/A   Partly Cloudy
8:58 PM 39.4 °F 35.2 °F 28.2 °F 64% 30.13 in 10.0 mi SSW 5.8 mph - N/A   Clear
9:59 PM 41.7 °F 36.7 °F 29.3 °F 61% 30.13 in 10.0 mi SSW 8.1 mph - N/A   Clear
10:59 PM 41.0 °F 36.4 °F 30.2 °F 65% 30.11 in 10.0 mi SSW 6.9 mph - N/A   Clear
11:59 PM 41.4 °F 36.2 °F 29.5 °F 63% 30.11 in 10.0 mi South 8.1 mph - N/A   Partly Cloudy